Temperature
14 13 13 13 13 13 13 13 13 12 12 12 12 12 12 12 12 12 12 12 12 12 12 12 12 12 12 12 12 12 11 11 11 11 11 11 11 11
14 13 13 13 13 13 13 13 13 13 12 12 12 12 12 12 12 12 12 12 11 12 12 12 12 12 11 11 11 11 11 11 11 11 11 11 11 11
14 13 13 13 13 13 13 13 13 13 12 12 12 12 12 11 11 11 11 11 11 11 11 11 11 11 11 11 11 11 11 11 11 11 10 10 10 10
14 14 13 13 13 13 13 13 13 13 12 12 12 12 11 11 11 11 11 11 11 11 11 11 11 11 11 11 11 11 11 11 11 10 10 10 10 10
14 14 13 13 13 13 13 13 13 13 12 12 12 12 12 11 11 11 11 11 11 11 11 11 11 11 11 11 11 11 11 10 10 10 10 10 10 10
14 13 13 13 13 13 13 13 13 12 12 12 12 12 12 11 11 11 11 11 11 11 11 10 10 11 11 11 10 10 10 10 10 10 10 10 10 10
13 13 13 13 13 13 13 13 12 12 12 12 12 12 12 11 11 11 11 11 11 10 10 10 10 10 10 10 10 10 10 10 10 10 10 9 9 9
13 13 13 13 13 13 12 12 12 12 12 12 12 12 11 11 11 11 11 11 10 10 10 10 10 10 10 10 10 10 10 10 9 9 9 9 9 9
13 13 13 13 12 12 12 12 12 12 12 11 11 11 11 11 11 11 10 10 10 10 10 10 10 10 10 10 9 9 9 9 9 9 9 9 9 9
13 12 12 12 12 12 12 12 12 12 11 11 11 11 11 11 11 10 10 10 10 10 10 10 10 10 10 9 9 9 9 9 9 9 9 8 8 8
12 12 12 12 12 12 12 12 12 11 11 11 11 11 11 10 10 10 10 10 10 10 10 9 9 9 9 9 9 9 9 9 8 8 8 8 8 8
12 12 11 11 11 11 11 11 11 11 11 11 11 10 10 10 10 10 10 9 9 9 9 9 9 9 9 9 9 9 8 8 8 8 8 8 7 7
12 11 11 11 11 11 11 11 11 11 11 10 10 10 10 10 10 10 9 9 9 9 9 9 9 9 8 8 8 8 8 8 8 8 7 7 7 7
11 11 11 11 11 11 10 10 10 10 10 10 10 10 10 10 10 9 9 9 9 9 9 8 8 8 8 8 8 8 8 7 7 7 7 7 7 7
11 11 10 10 10 10 10 10 10 10 9 9 9 9 9 9 9 9 9 9 8 8 8 8 8 8 8 8 7 7 7 7 7 7 7 7 7 6
10 10 10 10 10 10 10 9 9 9 9 9 9 9 9 8 8 8 8 8 8 8 8 8 8 7 7 7 7 7 7 7 7 7 7 7 6 6
10 10 10 9 9 9 9 9 9 9 9 9 8 8 8 8 8 8 8 8 8 8 7 7 7 7 7 7 7 7 7 7 6 6 6 6 6 6
10 10 10 9 9 9 9 9 9 9 8 8 8 8 8 8 8 7 7 7 7 7 7 7 7 7 7 6 6 6 6 6 6 6 6 6 6 5
9 9 9 9 9 9 9 9 8 8 8 8 8 8 8 7 7 7 7 7 7 7 7 6 6 6 6 6 6 6 6 6 6 6 5 5 5 5
9 9 9 9 9 9 8 8 8 8 8 8 8 7 7 7 7 7 7 7 6 6 6 6 6 6 6 6 5 5 5 5 5 5 5 5 5 5
9 9 9 9 8 8 8 8 8 8 8 7 7 7 7 7 7 6 6 6 6 6 6 6 6 5 5 5 5 5 5 5 4 4 4 4 4 4
9 9 9 8 8 8 8 8 8 7 7 7 7 7 7 7 6 6 6 6 6 5 5 5 5 5 5 5 5 5 5 4 4 4 3 3 3 3
9 9 8 8 8 8 8 7 7 7 7 7 7 7 7 6 6 6 6 5 5 5 5 5 5 5 5 4 4 4 4 4 3 3 3 3 2 2
Wind_Speed
1 1 1 1 2 2 3 3 4 1 1 2 1 2 1 2 3 4 5 6 6 6 7 7 7 8 8 9 9 10 10 10 10 10 10 10 10 10
1 1 1 1 1 2 2 2 2 3 2 1 2 1 1 1 2 3 3 4 5 5 6 6 6 6 7 7 8 8 8 8 9 9 9 9 9 9
0 1 1 1 1 1 2 2 2 3 3 1 1 1 0 1 2 2 3 3 3 4 4 4 4 4 5 5 6 6 7 7 7 7 7 7 7 7
1 1 1 1 1 1 2 2 2 3 4 3 1 0 0 0 1 1 2 2 2 3 3 3 3 3 4 4 4 5 5 6 6 6 6 6 6 6
2 2 2 2 2 1 2 2 2 2 2 3 1 0 0 1 1 2 2 3 3 3 3 3 3 3 3 3 3 4 4 5 5 5 5 6 5 5
1 2 2 3 3 3 2 3 3 3 3 2 1 0 0 0 1 0 1 2 2 3 3 3 3 4 3 3 3 3 3 4 4 4 5 5 5 5
1 1 2 3 4 3 3 3 4 3 2 2 1 1 1 1 1 1 1 1 2 2 2 3 4 4 5 4 3 3 3 3 3 3 4 4 4 5
2 1 1 1 2 3 4 5 6 5 4 3 2 2 3 3 2 2 2 0 2 1 1 2 2 2 4 4 3 3 3 2 2 3 3 3 3 4
2 2 1 1 1 1 2 2 3 4 6 5 4 5 4 4 3 2 3 3 3 2 1 1 1 2 3 3 3 2 2 2 2 2 2 3 3 4
2 2 2 2 1 2 2 1 1 2 3 3 4 5 4 4 4 4 3 2 1 1 2 1 1 2 2 4 3 1 1 1 2 2 3 3 3 4
2 2 2 2 3 3 3 2 1 1 1 3 3 3 3 4 6 4 3 2 1 2 2 2 2 1 2 2 3 2 2 2 2 2 3 3 3 3
1 2 3 3 3 4 3 3 3 3 1 1 0 1 1 1 4 4 3 3 1 2 2 2 2 1 1 2 2 3 3 3 3 3 3 3 3 3
2 2 2 4 4 4 4 3 4 3 2 2 1 1 1 1 0 1 2 3 3 3 2 3 2 1 2 2 2 2 2 2 3 4 4 4 3 2
3 3 3 4 5 5 4 3 3 3 2 2 1 0 1 1 1 1 2 2 3 3 3 3 2 3 2 2 3 2 2 3 2 3 4 4 4 4
3 4 4 4 3 3 3 4 3 2 2 2 2 2 2 2 1 0 0 0 1 2 2 3 3 2 3 3 3 2 2 2 2 3 3 3 3 3
3 3 3 3 2 2 2 2 2 2 2 3 2 1 1 0 0 1 1 1 1 3 3 1 2 3 3 3 3 3 3 2 2 3 3 4 4 4
2 1 1 1 1 1 1 1 1 1 1 1 1 1 1 1 1 1 1 0 1 2 3 2 1 1 3 3 3 4 4 3 3 3 2 3 4 5
4 2 3 3 3 3 3 2 2 2 2 2 2 2 2 2 1 1 1 1 2 3 3 2 1 1 1 2 4 4 3 4 4 3 2 3 5 5
4 3 4 4 3 3 3 3 3 3 3 3 3 3 3 2 2 2 1 2 2 3 3 2 1 1 2 4 3 3 3 3 3 2 3 3 5 5
3 4 4 4 4 4 4 3 3 2 2 3 3 3 3 3 2 2 2 2 3 3 3 2 2 3 4 4 3 3 3 3 2 3 3 3 4 5
4 4 4 4 4 4 3 3 3 3 3 3 3 3 3 3 3 3 3 3 3 3 3 4 5 5 2 1 2 3 2 3 3 3 3 3 3 3
4 4 4 4 4 4 3 3 3 3 4 3 3 3 3 3 3 3 3 3 3 3 4 4 3 1 1 2 4 4 4 3 4 3 3 2 1 2
4 4 4 4 4 3 3 4 4 4 4 3 3 3 3 3 3 3 3 2 2 2 3 3 2 1 2 2 3 3 4 3 3 3 3 5 5 6
Wind_Direction
182 172 169 178 167 172 164 164 155 170 288 293 313 331 8 37 36 43 41 39 42 42 44 44 44 45 44 42 42 41 40 40 40 40 39 37 36 38
187 164 169 183 154 148 167 165 159 162 201 256 244 280 7 65 40 42 35 24 35 39 38 36 37 40 40 40 39 38 37 36 35 36 37 36 35 35
263 172 208 196 160 154 149 148 154 145 159 262 281 303 55 28 31 49 38 21 18 26 28 26 27 31 34 33 31 31 32 31 29 28 27 26 27 30
238 196 222 183 153 162 158 167 176 171 160 179 245 336 300 317 9 15 16 15 11 7 8 9 17 22 21 20 20 21 21 20 19 19 19 19 20 23
227 213 216 169 176 177 171 170 175 164 150 161 203 228 340 41 40 14 19 12 9 0 1 1 2 2 1 1 2 6 10 12 14 17 18 18 17 17
237 216 208 192 197 188 180 175 162 148 139 144 172 216 224 10 102 57 358 3 360 13 20 19 13 6 354 345 342 347 355 0 10 16 19 16 15 14
279 240 223 212 208 196 190 181 165 159 153 154 178 201 234 207 214 207 207 335 342 5 15 11 10 6 358 353 351 350 357 4 11 17 16 14 13 9
255 267 254 246 232 214 207 190 174 171 180 181 198 214 236 226 203 189 174 99 307 329 38 345 17 348 339 349 360 12 7 9 18 16 10 6 2 356
233 243 269 274 216 170 188 191 198 198 187 181 194 217 219 212 185 192 197 199 225 238 124 307 341 320 322 336 343 353 5 9 5 359 359 0 358 354
233 222 220 257 230 169 158 150 205 221 209 196 206 220 218 197 188 188 189 186 261 286 159 238 281 275 319 332 338 332 338 353 354 350 347 345 346 351
247 226 213 230 229 168 152 160 213 262 230 205 216 228 218 191 163 130 131 129 281 278 201 200 241 268 298 307 323 325 315 313 321 328 332 328 325 331
254 238 219 218 219 176 171 175 212 240 203 152 325 334 16 163 174 172 176 176 203 253 216 188 215 206 290 287 314 329 323 306 299 305 312 314 317 340
224 246 243 226 220 197 180 195 211 191 166 164 156 5 23 37 74 185 182 189 204 235 218 180 202 197 212 270 298 306 306 311 315 312 304 298 296 311
223 231 235 224 217 200 190 199 186 150 134 129 135 253 274 278 271 205 201 209 224 242 234 189 204 197 198 245 272 289 298 295 303 309 309 306 295 281
229 225 221 216 213 200 192 174 153 145 144 160 207 247 254 252 219 110 62 124 346 319 291 211 208 210 200 222 246 257 273 279 287 298 302 297 291 299
230 222 211 208 183 165 156 160 155 170 177 194 212 234 253 247 257 237 261 277 345 330 345 287 219 202 220 235 237 261 258 259 277 281 288 295 298 292
161 144 146 143 158 156 138 136 154 160 188 198 200 216 227 236 279 272 242 223 235 282 312 340 350 198 217 220 242 258 264 269 268 269 272 287 286 291
157 180 193 197 203 203 198 206 207 210 211 207 209 214 221 233 254 278 231 212 235 262 274 288 332 346 331 281 229 246 261 266 275 270 254 270 285 294
176 202 206 208 212 208 207 209 216 217 204 201 209 215 216 220 225 237 235 234 247 259 267 269 256 238 268 285 281 228 247 279 285 280 268 261 274 288
203 207 213 211 209 209 208 214 217 209 205 205 209 215 213 213 219 230 232 234 247 262 273 271 246 235 237 258 272 281 265 260 276 284 290 286 286 301
213 216 214 211 208 204 205 208 205 207 206 199 206 211 210 209 222 231 234 236 243 259 266 269 263 250 245 272 292 295 301 292 275 280 289 295 306 320
214 214 214 211 203 197 197 199 201 205 202 203 208 210 209 209 218 224 229 234 243 250 264 280 301 292 240 245 270 286 300 323 328 316 314 296 268 274
218 214 211 207 201 195 195 200 203 209 209 207 208 209 204 208 216 220 229 237 248 262 280 292 306 305 272 260 266 285 298 311 328 337 327 334 313 300
Height
1546 1545 1545 1545 1545 1545 1545 1545 1545 1544 1544 1544 1544 1543 1543 1542 1541 1540 1539 1539 1538 1537 1537 1536 1535 1534 1533 1532 1531 1530 1528 1527 1526 1525 1524 1523 1522 1521
1545 1545 1544 1544 1544 1544 1544 1544 1544 1544 1543 1543 1543 1543 1542 1542 1541 1541 1540 1539 1538 1538 1537 1536 1535 1534 1533 1532 1531 1530 1529 1528 1527 1526 1525 1523 1522 1521
1544 1544 1544 1543 1543 1543 1543 1543 1543 1543 1542 1543 1542 1542 1542 1542 1541 1540 1540 1539 1538 1538 1537 1536 1535 1535 1534 1533 1532 1530 1529 1528 1527 1526 1524 1523 1522 1521
1543 1543 1543 1542 1542 1542 1542 1542 1542 1542 1542 1541 1541 1541 1541 1541 1540 1540 1539 1539 1538 1538 1537 1536 1535 1535 1534 1533 1532 1531 1529 1528 1527 1525 1524 1522 1521 1520
1541 1541 1541 1541 1541 1541 1541 1540 1540 1540 1541 1540 1540 1540 1540 1540 1540 1539 1539 1538 1537 1537 1536 1536 1535 1534 1533 1532 1531 1530 1529 1528 1526 1525 1523 1522 1521 1520
1540 1539 1539 1539 1539 1539 1539 1539 1539 1539 1539 1539 1539 1539 1539 1539 1539 1538 1538 1537 1536 1536 1535 1535 1534 1533 1532 1531 1530 1529 1528 1527 1526 1524 1523 1521 1520 1519
1538 1537 1537 1537 1537 1537 1537 1537 1537 1537 1537 1537 1537 1537 1537 1537 1537 1537 1536 1536 1535 1535 1534 1533 1533 1532 1531 1530 1529 1528 1527 1526 1525 1523 1522 1521 1519 1518
1535 1535 1535 1534 1534 1535 1535 1535 1535 1535 1535 1535 1535 1535 1535 1535 1535 1535 1534 1534 1533 1534 1532 1532 1531 1530 1530 1529 1528 1527 1526 1525 1523 1522 1521 1519 1518 1517
1532 1532 1532 1532 1532 1532 1532 1532 1532 1532 1533 1533 1533 1533 1533 1533 1533 1533 1532 1532 1531 1531 1531 1529 1529 1528 1528 1527 1526 1526 1524 1523 1522 1521 1519 1518 1516 1515
1529 1529 1529 1529 1529 1529 1529 1529 1529 1529 1530 1530 1530 1530 1531 1531 1531 1531 1530 1530 1529 1529 1529 1527 1527 1526 1526 1525 1524 1524 1523 1521 1520 1519 1517 1516 1514 1513
1526 1526 1526 1526 1526 1526 1526 1526 1526 1526 1527 1527 1527 1528 1528 1528 1528 1528 1528 1527 1527 1526 1526 1525 1524 1523 1523 1522 1522 1521 1520 1519 1518 1516 1515 1513 1512 1510
1522 1523 1523 1523 1523 1522 1522 1523 1523 1523 1524 1524 1524 1524 1525 1525 1525 1525 1525 1525 1524 1523 1523 1523 1521 1521 1520 1519 1519 1518 1517 1516 1515 1513 1512 1510 1509 1507
1519 1519 1519 1520 1520 1519 1519 1520 1520 1520 1520 1521 1521 1521 1521 1522 1522 1522 1522 1522 1521 1520 1521 1520 1519 1518 1517 1516 1515 1515 1514 1512 1511 1510 1509 1507 1506 1504
1515 1515 1516 1516 1516 1516 1516 1517 1517 1517 1517 1517 1517 1517 1518 1518 1518 1518 1518 1518 1518 1517 1517 1516 1515 1515 1513 1512 1511 1510 1510 1509 1508 1506 1505 1504 1502 1501
1511 1512 1512 1513 1513 1513 1513 1513 1513 1513 1514 1514 1514 1514 1515 1515 1515 1514 1514 1514 1513 1513 1513 1512 1512 1511 1510 1508 1507 1506 1505 1504 1503 1502 1501 1499 1498 1496
1508 1508 1508 1509 1509 1509 1510 1510 1510 1511 1511 1511 1511 1511 1511 1511 1511 1510 1510 1510 1509 1509 1509 1508 1508 1507 1505 1504 1503 1501 1501 1500 1499 1498 1497 1495 1494 1492
1504 1504 1504 1504 1504 1505 1506 1506 1507 1507 1507 1507 1507 1507 1507 1507 1507 1507 1506 1506 1505 1504 1504 1504 1503 1502 1501 1500 1499 1498 1497 1496 1495 1494 1492 1490 1489 1488
1500 1499 1500 1500 1500 1501 1501 1502 1503 1503 1503 1503 1503 1503 1503 1503 1503 1503 1503 1502 1501 1501 1500 1500 1499 1498 1497 1495 1496 1493 1493 1491 1490 1489 1487 1485 1483 1483
1495 1495 1496 1496 1497 1497 1498 1498 1499 1500 1500 1500 1500 1500 1500 1500 1499 1499 1499 1498 1498 1497 1497 1496 1495 1494 1492 1490 1490 1490 1488 1487 1485 1484 1482 1480 1478 1477
1491 1491 1492 1492 1493 1494 1494 1494 1495 1495 1495 1495 1496 1496 1496 1496 1495 1495 1494 1494 1494 1493 1492 1492 1491 1490 1489 1487 1486 1485 1484 1483 1481 1479 1478 1476 1474 1473
1486 1487 1488 1488 1489 1489 1490 1490 1490 1491 1491 1491 1491 1491 1492 1491 1491 1491 1491 1490 1490 1489 1488 1487 1487 1487 1485 1484 1482 1480 1480 1479 1477 1475 1473 1471 1469 1467
1482 1483 1483 1484 1485 1485 1485 1486 1486 1486 1486 1487 1487 1487 1487 1487 1487 1487 1487 1486 1486 1485 1484 1483 1483 1482 1481 1479 1477 1476 1475 1474 1473 1472 1470 1469 1467 1464
1477 1478 1479 1479 1480 1481 1481 1481 1481 1482 1482 1482 1483 1483 1483 1483 1483 1483 1483 1482 1482 1481 1480 1479 1478 1477 1476 1474 1473 1472 1470 1469 1468 1466 1466 1465 1464 1463